FIN46J LOWK-LDDU

Flight info

Callsign FIN46J
Flight time 0h 46m
Altitude 33000
Route BERTA DCT SABAD L862 SPL L607 SIPAL
Aircraft A321/M-SDE3FGHIRWY/LB1

Departure

Time 2026-04-20 16:18
Airport Klagenfurt Airport (LOWK)

Arrival

Time 2026-04-20 17:04
Airport Dubrovnik Ruđer Bošković Airport (LDDU)
Time Latitude Longitude Altitude Speed Heading
2026-04-20 16:18 46.63529 14.37396 2836 ft 165 kts 105°
2026-04-20 16:18 46.63192 14.39086 3169 ft 181 kts 105°
2026-04-20 16:18 46.62838 14.40897 3611 ft 190 kts 105°
2026-04-20 16:18 46.62461 14.42816 3941 ft 206 kts 106°
2026-04-20 16:19 46.62034 14.44913 4143 ft 228 kts 106°
2026-04-20 16:19 46.61561 14.47257 4410 ft 256 kts 106°
2026-04-20 16:19 46.61047 14.49798 5081 ft 266 kts 106°
2026-04-20 16:19 46.60522 14.52400 5894 ft 270 kts 105°
2026-04-20 16:20 46.59999 14.55015 6683 ft 276 kts 105°
2026-04-20 16:20 46.59387 14.57680 7431 ft 282 kts 117°
2026-04-20 16:20 46.58132 14.59885 8136 ft 288 kts 143°
2026-04-20 16:20 46.56334 14.61155 8897 ft 290 kts 168°
2026-04-20 16:21 46.54324 14.61507 9675 ft 292 kts 177°
2026-04-20 16:21 46.52280 14.61740 10421 ft 301 kts 178°
2026-04-20 16:21 46.50119 14.61971 10676 ft 323 kts 178°
2026-04-20 16:21 46.47800 14.62207 10872 ft 345 kts 178°
2026-04-20 16:22 46.45360 14.62464 11448 ft 356 kts 177°
2026-04-20 16:22 46.42921 14.63005 12168 ft 363 kts 173°
2026-04-20 16:22 46.40419 14.63636 12906 ft 367 kts 174°
2026-04-20 16:22 46.37878 14.64279 13728 ft 373 kts 174°
2026-04-20 16:23 46.35311 14.64930 14454 ft 377 kts 174°
2026-04-20 16:23 46.32711 14.65584 15112 ft 382 kts 174°
2026-04-20 16:23 46.30079 14.66241 15771 ft 386 kts 175°
2026-04-20 16:23 46.27420 14.66904 16412 ft 390 kts 175°
2026-04-20 16:24 46.24728 14.67576 16979 ft 395 kts 175°
2026-04-20 16:24 46.22010 14.68253 17565 ft 399 kts 175°
2026-04-20 16:24 46.19259 14.68937 18180 ft 404 kts 176°
2026-04-20 16:24 46.16513 14.69620 18707 ft 408 kts 176°
2026-04-20 16:25 46.13701 14.70317 19259 ft 412 kts 176°
2026-04-20 16:25 46.10859 14.71016 19819 ft 416 kts 176°
2026-04-20 16:25 46.07997 14.71720 20380 ft 419 kts 176°
2026-04-20 16:25 46.05108 14.72429 20937 ft 423 kts 176°
2026-04-20 16:26 46.02188 14.73147 21470 ft 427 kts 176°
2026-04-20 16:26 45.99247 14.73872 21952 ft 431 kts 176°
2026-04-20 16:26 45.96268 14.74606 22221 ft 441 kts 176°
2026-04-20 16:26 45.93206 14.75355 22424 ft 451 kts 176°
2026-04-20 16:27 45.90136 14.76111 22843 ft 455 kts 176°
2026-04-20 16:27 45.87004 14.76884 23330 ft 458 kts 176°
2026-04-20 16:27 45.83851 14.77662 23758 ft 461 kts 177°
2026-04-20 16:27 45.80675 14.78444 24164 ft 464 kts 177°
2026-04-20 16:28 45.77482 14.79228 24549 ft 468 kts 177°
2026-04-20 16:28 45.74263 14.80017 24925 ft 471 kts 177°
2026-04-20 16:28 45.71025 14.80810 25291 ft 474 kts 177°
2026-04-20 16:28 45.67762 14.81608 25652 ft 477 kts 177°
2026-04-20 16:29 45.64526 14.82393 25993 ft 480 kts 177°
2026-04-20 16:29 45.61223 14.83194 26313 ft 482 kts 177°
2026-04-20 16:29 45.57908 14.83997 26627 ft 486 kts 177°
2026-04-20 16:29 45.54558 14.84807 26957 ft 489 kts 177°
2026-04-20 16:30 45.51193 14.85620 27312 ft 492 kts 177°
2026-04-20 16:30 45.47816 14.86662 27672 ft 502 kts 170°
2026-04-20 16:30 45.44516 14.88395 28022 ft 512 kts 161°
2026-04-20 16:30 45.41340 14.90752 28561 ft 514 kts 156°
2026-04-20 16:31 45.38240 14.93139 29070 ft 513 kts 157°
2026-04-20 16:31 45.35103 14.95533 29621 ft 511 kts 157°
2026-04-20 16:31 45.31967 14.97908 30152 ft 510 kts 157°
2026-04-20 16:31 45.28840 15.00270 30633 ft 508 kts 157°
2026-04-20 16:32 45.25725 15.02621 31114 ft 506 kts 157°
2026-04-20 16:32 45.22627 15.04963 31589 ft 504 kts 157°
2026-04-20 16:32 45.19543 15.07301 32089 ft 501 kts 157°
2026-04-20 16:32 45.16483 15.09617 32592 ft 498 kts 157°
2026-04-20 16:33 45.13467 15.11892 32906 ft 496 kts 157°
2026-04-20 16:33 45.10430 15.14179 32988 ft 493 kts 157°
2026-04-20 16:33 45.04688 15.19537 32983 ft 496 kts 148°
2026-04-20 16:34 44.99099 15.25268 32985 ft 496 kts 148°
2026-04-20 16:34 44.93490 15.31010 32954 ft 501 kts 148°
2026-04-20 16:35 44.87869 15.36733 32968 ft 502 kts 148°
2026-04-20 16:35 44.82203 15.42473 32983 ft 502 kts 148°
2026-04-20 16:36 44.76533 15.48214 32978 ft 502 kts 148°
2026-04-20 16:36 44.70865 15.53933 32977 ft 502 kts 148°
2026-04-20 16:37 44.66153 15.58675 32943 ft 501 kts 148°
2026-04-20 16:37 44.59564 15.65305 32963 ft 501 kts 148°
2026-04-20 16:38 44.53899 15.70993 32975 ft 501 kts 148°
2026-04-20 16:38 44.49184 15.75714 32965 ft 501 kts 148°
2026-04-20 16:39 44.43517 15.81385 32966 ft 501 kts 148°
2026-04-20 16:39 44.36918 15.87953 32966 ft 501 kts 148°
2026-04-20 16:40 44.32197 15.92623 32973 ft 500 kts 149°
2026-04-20 16:40 44.26516 15.98245 32968 ft 500 kts 148°
2026-04-20 16:41 44.20843 16.03854 32954 ft 500 kts 148°
2026-04-20 16:41 44.14246 16.10363 32973 ft 500 kts 148°
2026-04-20 16:42 44.09532 16.15001 32972 ft 499 kts 148°
2026-04-20 16:42 44.03861 16.20573 32978 ft 499 kts 148°
2026-04-20 16:43 43.98619 16.26946 32963 ft 502 kts 140°
2026-04-20 16:43 43.93516 16.33571 32973 ft 502 kts 140°
2026-04-20 16:44 43.88452 16.40139 32195 ft 497 kts 140°
2026-04-20 16:44 43.85938 16.43383 31271 ft 503 kts 140°
2026-04-20 16:44 43.83364 16.46695 30590 ft 508 kts 140°
2026-04-20 16:45 43.80767 16.50034 29976 ft 512 kts 139°
2026-04-20 16:45 43.78148 16.53404 29224 ft 515 kts 139°
2026-04-20 16:45 43.75524 16.56777 28531 ft 516 kts 139°
2026-04-20 16:45 43.72896 16.60149 27863 ft 514 kts 139°
2026-04-20 16:46 43.70283 16.63494 27287 ft 511 kts 139°
2026-04-20 16:46 43.67687 16.66813 26768 ft 507 kts 139°
2026-04-20 16:46 43.65088 16.70131 26267 ft 510 kts 139°
2026-04-20 16:46 43.62518 16.73410 25784 ft 509 kts 139°
2026-04-20 16:47 43.59932 16.76708 25278 ft 506 kts 139°
2026-04-20 16:47 43.57354 16.79995 24797 ft 503 kts 139°
2026-04-20 16:47 43.54797 16.83253 24318 ft 497 kts 139°
2026-04-20 16:47 43.52277 16.86463 23852 ft 488 kts 139°
2026-04-20 16:48 43.49804 16.89606 23401 ft 479 kts 139°
2026-04-20 16:48 43.47376 16.92683 22907 ft 470 kts 139°
2026-04-20 16:48 43.45017 16.95663 22423 ft 462 kts 139°
2026-04-20 16:48 43.42668 16.98627 21963 ft 455 kts 139°
2026-04-20 16:49 43.40349 17.01548 21514 ft 449 kts 139°
2026-04-20 16:49 43.38066 17.04425 21067 ft 443 kts 139°
2026-04-20 16:49 43.35804 17.07280 20644 ft 439 kts 139°
2026-04-20 16:49 43.33568 17.10104 20214 ft 435 kts 139°
2026-04-20 16:50 43.31354 17.12898 19771 ft 430 kts 139°
2026-04-20 16:50 43.29156 17.15659 19354 ft 426 kts 139°
2026-04-20 16:50 43.27004 17.18352 18951 ft 423 kts 139°
2026-04-20 16:50 43.24840 17.21058 18544 ft 420 kts 139°
2026-04-20 16:51 43.22693 17.23744 18130 ft 416 kts 139°
2026-04-20 16:51 43.20565 17.26411 17671 ft 413 kts 139°
2026-04-20 16:51 43.18453 17.29058 17165 ft 409 kts 139°
2026-04-20 16:51 43.16362 17.31674 16655 ft 406 kts 139°
2026-04-20 16:52 43.14286 17.34264 16121 ft 402 kts 139°
2026-04-20 16:52 43.12227 17.36830 15620 ft 398 kts 139°
2026-04-20 16:52 43.10191 17.39367 15174 ft 394 kts 139°
2026-04-20 16:52 43.08204 17.41839 14765 ft 388 kts 139°
2026-04-20 16:53 43.06226 17.44293 14371 ft 381 kts 139°
2026-04-20 16:53 43.04282 17.46706 13970 ft 375 kts 139°
2026-04-20 16:53 43.02365 17.49086 13541 ft 370 kts 140°
2026-04-20 16:53 43.00476 17.51430 13148 ft 364 kts 140°
2026-04-20 16:54 42.98616 17.53737 12777 ft 358 kts 140°
2026-04-20 16:54 42.96788 17.56000 12412 ft 352 kts 140°
2026-04-20 16:54 42.94987 17.58227 12052 ft 347 kts 139°
2026-04-20 16:54 42.93209 17.60423 11695 ft 342 kts 140°
2026-04-20 16:55 42.91479 17.62557 11345 ft 338 kts 140°
2026-04-20 16:55 42.89744 17.64693 11000 ft 334 kts 140°
2026-04-20 16:55 42.88029 17.66805 10652 ft 331 kts 140°
2026-04-20 16:55 42.86330 17.68896 10313 ft 327 kts 140°
2026-04-20 16:56 42.84648 17.70969 9976 ft 324 kts 140°
2026-04-20 16:56 42.82981 17.73021 9548 ft 323 kts 140°
2026-04-20 16:56 42.81316 17.75071 9111 ft 323 kts 140°
2026-04-20 16:56 42.79650 17.77123 8671 ft 322 kts 139°
2026-04-20 16:57 42.78015 17.79133 8264 ft 321 kts 139°
2026-04-20 16:57 42.76361 17.81163 7860 ft 319 kts 139°
2026-04-20 16:57 42.74718 17.83176 7461 ft 317 kts 139°
2026-04-20 16:57 42.73087 17.85173 7064 ft 314 kts 139°
2026-04-20 16:58 42.71682 17.87394 6577 ft 304 kts 122°
2026-04-20 16:58 42.70693 17.89849 6183 ft 288 kts 118°
2026-04-20 16:58 42.69781 17.92186 5806 ft 272 kts 118°
2026-04-20 16:58 42.68919 17.94390 5467 ft 257 kts 118°
2026-04-20 16:59 42.68102 17.96473 5127 ft 250 kts 119°
2026-04-20 16:59 42.67299 17.98518 4802 ft 241 kts 119°
2026-04-20 16:59 42.66523 18.00494 4476 ft 232 kts 119°
2026-04-20 16:59 42.65777 18.02395 4173 ft 223 kts 119°
2026-04-20 17:00 42.64414 18.05862 3612 ft 196 kts 120°
2026-04-20 17:00 42.63781 18.07469 3363 ft 189 kts 120°
2026-04-20 17:00 42.63177 18.09002 3112 ft 180 kts 120°
2026-04-20 17:01 42.62594 18.10481 2877 ft 175 kts 120°
2026-04-20 17:01 42.62030 18.11912 2645 ft 172 kts 119°
2026-04-20 17:01 42.61487 18.13288 2428 ft 160 kts 120°
2026-04-20 17:01 42.60980 18.14575 2211 ft 149 kts 119°
2026-04-20 17:02 42.60500 18.15787 2014 ft 143 kts 120°
2026-04-20 17:02 42.60031 18.16964 1836 ft 140 kts 120°
2026-04-20 17:02 42.59570 18.18131 1660 ft 142 kts 119°
2026-04-20 17:02 42.59104 18.19314 1449 ft 142 kts 120°
2026-04-20 17:03 42.58642 18.20497 1271 ft 141 kts 121°
2026-04-20 17:03 42.58193 18.21645 1066 ft 138 kts 120°
2026-04-20 17:03 42.57745 18.22788 867 ft 137 kts 121°
2026-04-20 17:03 42.57301 18.23920 714 ft 136 kts 123°
2026-04-20 17:04 42.56847 18.25048 564 ft 136 kts 122°
2026-04-20 17:04 42.56443 18.26052 534 ft 102 kts 118°
2026-04-20 17:04 42.56188 18.26694 534 ft 54 kts 118°
2026-04-20 17:04 42.56018 18.27119 534 ft 48 kts 118°
2026-04-20 17:05 42.55927 18.27308 532 ft 14 kts 151°
2026-04-20 17:05 42.55837 18.27339 533 ft 8 kts 172°
2026-04-20 17:05 42.55786 18.27335 534 ft 7 kts 202°
2026-04-20 17:05 42.55773 18.27273 534 ft 8 kts 286°
2026-04-20 17:06 42.55801 18.27192 534 ft 10 kts 298°
2026-04-20 17:06 42.55839 18.27100 534 ft 12 kts 298°
2026-04-20 17:06 42.55882 18.26993 534 ft 14 kts 298°
2026-04-20 17:06 42.55931 18.26869 534 ft 16 kts 298°
2026-04-20 17:07 42.55986 18.26731 534 ft 18 kts 298°
2026-04-20 17:07 42.56046 18.26577 534 ft 19 kts 298°
2026-04-20 17:07 42.56112 18.26411 534 ft 21 kts 298°
2026-04-20 17:07 42.56154 18.26298 534 ft 5 kts 277°
2026-04-20 17:08 42.56132 18.26264 534 ft 4 kts 210°
2026-04-20 17:08 42.56116 18.26254 534 ft 2 kts 206°
2026-04-20 17:08 42.56109 18.26248 534 ft 0 kts 208°